Lid_Strength_Index
-1 -0 0 1 7 6 9 8 6 7 6 4 4 4 5 4 5 7 1 -0 -0 -1 -1 -1 -1 -2 -2 -2 -2 -2 -2 -2 -2 -2 -2 -2 -2 -2 -1 -1 -1 -1 -1 -1 -1 -1 -1 -1 -1
1 1 1 3 8 9 9 7 7 6 5 3 3 4 4 5 3 2 1 -0 -1 -1 -2 -2 -1 -1 -2 -2 -2 -2 -2 -2 -2 -2 -2 -2 -2 -2 -2 -2 -1 -1 -1 -1 -1 -1 -1 -1 -1
2 1 4 6 8 10 9 7 6 5 4 5 4 3 4 4 2 2 0 -0 -1 -1 -2 -2 -1 -1 -1 -2 -2 -2 -2 -2 -2 -2 -2 -2 -2 -2 -2 -2 -2 -2 -2 -2 -2 -2 -2 -1 -1
1 2 3 8 9 7 7 6 5 5 4 4 4 5 3 1 2 1 0 -0 -0 -1 -1 -2 -1 -1 -1 -1 -2 -1 -2 -2 -2 -2 -2 -2 -2 -2 -2 -2 -2 -2 -2 -2 -2 -2 -2 -2 -1
1 3 7 8 7 6 5 5 5 5 5 4 4 5 4 2 1 0 0 -0 -0 -0 -1 -1 -1 -1 -1 -1 -1 -1 -1 -1 -2 -2 -2 -2 -2 -2 -2 -1 -1 -1 -2 -2 -2 -2 -2 -2 -2
4 4 8 8 7 6 5 4 4 4 4 4 4 4 3 1 1 0 0 -0 -0 -0 -1 -1 -1 -1 -1 -1 -1 -1 -1 -1 -1 -2 -2 -2 -2 -2 -1 -1 -1 -1 -1 -1 -2 -2 -2 -2 -2
5 6 8 7 7 7 5 4 4 4 4 4 3 5 3 2 1 0 0 -0 -0 -1 -1 -1 -1 -1 -1 -1 -1 -1 -1 -1 -1 -1 -1 -1 -1 -1 -1 -1 -1 -1 -1 -2 -2 -1 -1 -2 -2
4 5 8 7 8 7 5 4 4 4 5 2 2 5 4 2 0 0 0 -0 -0 -0 -0 -1 -1 -1 -1 -1 -1 -1 -1 -1 -1 -1 -1 -1 -1 -1 -1 -1 -2 -1 -1 -1 -1 -2 -2 -2 -2
3 7 9 8 7 6 4 5 4 3 4 3 3 3 2 1 0 1 1 1 0 0 -0 -1 -1 -1 -1 -1 -1 -1 -1 -1 -1 -1 -1 -1 -2 -2 -2 -2 -1 -1 -1 -1 -1 -1 -1 -2 -2
5 7 7 5 5 5 4 4 4 4 4 4 3 2 1 1 1 2 2 1 1 1 0 -0 -1 -1 -1 -1 -2 -2 -1 -2 -2 -2 -2 -2 -2 -2 -1 -2 -1 -1 -1 -1 -1 -1 -1 -1 -1
5 8 5 5 4 4 5 5 3 5 6 4 4 3 2 2 1 2 2 1 1 0 0 -0 -1 -1 -1 -1 -1 -1 -1 -1 -2 -2 -2 -2 -2 -2 -1 -1 -1 -2 -2 -1 -2 -1 -1 -2 -1
7 5 5 4 4 4 5 4 5 4 4 3 2 2 2 2 2 2 2 1 1 1 0 -0 -1 -0 -1 -1 -1 -1 -1 -1 -1 -1 -2 -1 -1 -1 -1 -1 -1 -1 -1 -1 -1 -1 -1 -1 -2
6 5 4 4 4 4 4 5 5 5 3 2 2 2 2 2 2 1 1 1 1 1 0 -0 -1 -0 -0 -1 -1 -1 -1 -1 -1 -1 -2 -2 -1 -1 -1 -1 -1 -1 -1 -1 -1 -1 -1 -1 -1
5 5 5 4 4 4 5 5 4 4 3 3 3 3 2 2 2 1 1 1 1 1 0 -0 -0 -1 -1 -0 -1 -1 -1 -1 -1 -1 -2 -2 -1 -1 -1 -0 -0 -0 -1 -1 -1 -1 -1 -1 -1
5 7 6 5 5 5 4 7 6 4 3 3 3 3 2 2 2 2 1 1 1 0 -0 0 -0 -1 -0 -0 -1 -1 -1 -1 -1 -1 -2 -2 -2 -1 -1 -0 -0 -1 -2 -2 -1 -1 -1 -0 -1
7 6 9 6 5 5 5 9 5 4 4 4 4 3 3 2 2 1 1 1 0 0 0 -0 0 -0 -0 -0 -0 -1 -1 -1 -1 -1 -1 -2 -2 -2 -1 -0 -0 -1 -1 -1 -1 -0 0 -0 -0
7 10 9 8 5 6 7 8 5 4 4 4 4 4 3 2 2 1 1 1 0 0 0 0 0 0 0 -0 -0 -1 -1 -1 -1 -1 -1 -1 -1 -1 -1 -0 -1 -1 -0 -1 -0 -0 -0 0 0
10 9 8 8 6 7 7 7 5 4 4 5 4 4 3 3 3 2 1 1 0 0 0 0 0 0 -0 -0 -0 -0 -0 -1 -1 -1 -1 -1 -1 -1 -0 -0 -1 -1 -0 -0 -0 -0 -0 0 0
8 8 8 7 6 6 7 7 6 4 5 5 4 4 4 3 2 1 1 1 1 1 1 0 1 0 0 1 1 1 1 0 -0 -1 -1 -1 -1 -1 -1 -0 -0 -1 -0 0 -1 -0 1 1 -0
9 9 9 7 6 6 7 8 6 5 5 5 4 4 3 3 2 2 2 2 1 1 1 1 1 0 0 0 -0 -0 -0 -0 -1 -1 -1 -1 -1 -1 -1 -0 -0 -1 0 -0 -0 0 1 1 0
10 10 10 9 8 7 8 9 8 6 5 5 4 3 3 3 3 2 3 2 2 2 1 1 1 0 -0 -1 -0 0 -0 -0 0 0 0 -0 -1 -1 -1 -1 -1 -1 -1 0 -0 -0 1 2 1
11 9 9 10 10 12 8 13 9 7 7 6 5 4 3 3 2 2 3 2 2 2 1 1 1 0 -0 -1 -0 -0 1 2 0 -0 -1 -0 -1 -1 -1 -1 -1 -1 -1 -0 -0 -0 0 0 2
10 9 9 9 10 10 10 12 10 7 8 6 5 4 3 3 3 3 3 2 2 1 1 1 1 0 0 -0 -1 1 0 0 0 -0 0 -0 -1 -1 -1 -1 -1 -1 -0 -1 -1 -0 0 -0 1
8 9 9 9 10 13 11 11 11 9 7 6 5 4 3 3 3 3 2 2 2 1 1 1 1 1 0 -0 -0 0 1 1 1 1 1 0 -0 -0 -1 -1 -1 -1 -1 -1 -0 -1 -0 -0 -0
8 9 13 14 13 14 9 11 10 7 6 5 5 4 4 4 4 3 3 3 2 2 1 1 1 1 0 0 0 0 0 1 1 1 0 1 1 0 -0 -1 -1 -1 -1 -1 -1 -0 -0 -0 0
9 9 13 16 15 12 9 12 10 6 5 4 4 4 4 4 3 3 3 3 2 2 1 1 1 1 1 0 0 -0 -0 0 -0 0 -0 -0 0 0 -1 -1 -1 -1 -1 -1 -1 -0 0 -0 0
9 10 8 11 10 11 10 9 7 6 5 5 5 4 4 4 4 3 3 2 2 2 1 1 1 1 0 0 0 0 0 -0 0 0 -1 0 -0 -0 -1 -1 -1 -1 -1 -1 -1 -0 0 0 0
7 7 11 10 14 15 12 11 10 8 7 5 5 5 5 4 4 3 3 2 2 1 1 1 1 1 0 0 0 0 0 -0 -0 -0 0 0 -0 -1 -0 -1 -1 -1 -1 -1 -1 -0 -0 0 0
9 9 9 8 10 13 13 12 7 7 6 6 5 5 5 4 4 3 3 2 2 1 1 1 1 1 1 1 0 0 0 0 -0 0 -0 -0 -0 -1 -0 -0 -1 -1 -0 -0 0 0 1 1 1
7 8 8 11 12 11 11 12 5 5 5 5 5 5 4 4 3 3 3 2 2 2 2 1 1 1 1 0 0 0 0 0 0 0 -0 -0 -0 -1 -0 -0 -1 -1 0 -0 1 1 1 1 1